Weather Roundup
Issued by NWS Chicago, IL

Home | Current Version | Previous Version | Text Only | Print | Product List | Glossary On
Versions: 1 2 3 4 5 6 7 8 9 10 11 12 13 14 15 16 17 18 19 20 21 22 23 24 25 26 27 28 29 30 31 32 33 34 35 36 37 38 39 40 41 42 43 44 45 46 47 48 49 50
000
NZUS59 KLOT 230608
HRRLOT

CHICAGO AREA WEATHER ROUNDUP
NATIONAL WEATHER SERVICE CHICAGO/ROMEOVILLE IL
1200 AM CST FRI FEB 23 2018

NOTE: "FAIR" INDICATES FEW OR NO CLOUDS BELOW 12,000 FEET WITH NO
SIGNIFICANT WEATHER AND/OR OBSTRUCTIONS TO VISIBILITY.

* THESE STATIONS ARE NOT UNDER NWS QUALITY CONTROL. THEY ALSO MAY NOT
  REPORT WEATHER SUCH AS PRECIPITATION OR FOG.

ILZ005-006-012>014-019>023-230700-
NORTHEAST ILLINOIS

CITY           SKY/WX    TMP DP  RH WIND       PRES   REMARKS
OHARE          CLOUDY    39  35  86 SE13      30.27F FOG
6HR MIN TEMP:  38; 6HR MAX TEMP:  40;

MIDWAY         CLOUDY    40  38  93 SE10      30.28F FOG
6HR MIN TEMP:  40; 6HR MAX TEMP:  41;

AURORA         CLOUDY    40  38  93 SE10      30.26F FOG
6HR MIN TEMP:  38; 6HR MAX TEMP:  40;

LANSING*       CLOUDY    38  38 100 SE9       30.30F FOG
JOLIET*        CLOUDY    41  41  99 SE9       30.27F FOG
WAUKEGAN       CLOUDY    36  34  92 SE10      30.29F
6HR MIN TEMP:  36; 6HR MAX TEMP:  37;

DUPAGE AIRPORT CLOUDY    39  38  96 SE10      30.26F FOG
6HR MIN TEMP:  37; 6HR MAX TEMP:  39;

WHEELING       CLOUDY    39  36  89 SE8       30.29F
6HR MIN TEMP:  38; 6HR MAX TEMP:  40;

KANKAKEE*      CLOUDY    40  39  99 SE10      30.29F FOG
MORRIS*        CLOUDY    40  39  97 SE10      30.26F FOG
LEWIS AIRPORT* CLOUDY    39  38  97 SE12      30.27F FOG
NORTHERLY ISL    N/A     36  34  92 SE8         N/A
$$

WIZ051-052-058>065-066-070>072-230700-
SOUTHEAST WISCONSIN

CITY           SKY/WX    TMP DP  RH WIND       PRES   REMARKS
MILWAUKEE      CLOUDY    37  31  78 SE9       30.30F
6HR MIN TEMP:  34; 6HR MAX TEMP:  37;

KENOSHA*       CLOUDY    37  33  85 SE13      30.29F
RACINE*        CLOUDY    37  32  82 SE10      30.32S
BURLINGTON     MIX PCPN  36  33  88 SE8       30.27F
WAUKESHA       CLOUDY    32  28  86 SE9       30.30S WCI  24
WEST BEND      CLOUDY    32  32 100 SE12G17   30.29S WCI  23
$$

INZ001>003-010>013-019-020-230700-
NORTHWEST INDIANA

CITY           SKY/WX    TMP DP  RH WIND       PRES   REMARKS
GARY*          CLOUDY    40  38  91 SE8       30.30F FOG
6HR MIN TEMP:  40; 6HR MAX TEMP:  44;

MICHIGAN CITY* NOT AVBL
RENSSELAER*    NOT AVBL
VALPARAISO     CLOUDY    39  36  89 SE13      30.31F FOG
$$

LMZ740>746-230700-
SOUTHERN LAKE MICHIGAN

STATION/POSITION TIME  SKY/WX   TEMP WIND        PRES    VSBY
                                AIR  DIR/SP/G
                 (UTC)          (F)  (DEG/KT/KT) (MB)    (MI)
HARRISON CRIB    0540            36  130/ 17/ 18   N/A
BURNHAM HARBOR   0600            36  120/  7/ 10   N/A
CALUMET HARBOR   0548            39  120/ 10/ 16 1025.1F
BURNS HARBOR     0540            39  120/  9/ 14 1026.4F
MICHIGAN CITY    0540            37  120/ 13/ 18   N/A
$$

ABBREVIATIONS USED IN REMARKS
   TC - TEMPERATURE IN CELSIUS
  WCI - WIND CHILL INDEX
   HX - HEAT INDEX
  VSB - VISIBILITY
$$



USA.gov is the U.S. government's official web portal to all federal, state and local government web resources and services.